Regional Weather Roundup
Issued by NWS

Home | Current Version | Previous Version | Text Only | Print | Product List | Glossary Off
Versions: 1 2 3 4 5 6 7 8 9 10 11 12 13 14 15 16 17 18 19 20 21 22 23 24 25 26 27 28 29 30 31 32 33 34 35 36 37 38 39 40 41 42 43 44 45 46 47 48 49 50

260
ASUS43 KIND 101609
RWRIN

WEATHER ROUNDUP FOR INDIANA
NATIONAL WEATHER SERVICE INDIANAPOLIS IN
1100 AM EST WED FEB 10 2016

NOTE: "FAIR" INDICATES FEW OR NO CLOUDS BELOW 12,000 FEET WITH NO
SIGNIFICANT WEATHER AND/OR OBSTRUCTIONS TO VISIBILITY.

* - STATION DOES NOT REPORT WEATHER SUCH AS PRECIPITATION OR FOG.

+ - STATION NOT QUALITY CONTROLLED BY THE NATIONAL WEATHER SERVICE.
    USE DATA WITH CAUTION...ESPECIALLY DEWPOINT AND RELATIVE
    HUMIDITY OBSERVATIONS.

INZ001>003-010>013-019-020-101700-
NORTHWEST INDIANA

CITY           SKY/WX    TMP DP  RH WIND       PRES   REMARKS
GARY /AIRPORT/ PTSUNNY   18   1  49 NW17      30.05R WCI   2
KNOX *+        SUNNY     14   7  73 W18       30.00R WCI  -3
LA PORTE +     LGT SNOW  19  13  77 W15       29.99R WCI   4
MICHIGAN CITY+ LGT SNOW  18  12  79 NW12G20   30.00R WCI   5
MONTICELLO +   MOSUNNY   14   1  57 NW14      30.04R WCI  -1
RENSSELAER +   SUNNY     16   3  57 NW14      30.05R WCI   1
VALPARAISO     CLOUDY    15   6  67 W15       30.01R WCI   0

$$

LMZ046-743>745-101700-
SOUTHERN LAKE MICHIGAN

STATION/POSITION TIME  TEMP    WIND        PRES    WAVE
                       AIR SEA DIR/SP/G            HT
                 (UTC) (F)     (DEG/KT/KT) (MB)    (FT)
BURNS HARBOR     1503   16     310/ 21     1016.3R
MICHIGAN CITY    1500   17     280/ 19/ 23   N/A

$$

INZ004-005-014>016-021>024-101700-
NORTH CENTRAL INDIANA

CITY           SKY/WX    TMP DP  RH WIND       PRES   REMARKS
ELKHART        FLURRIES  19  12  73 NW9       29.94R WCI   9
GOSHEN         CLOUDY    19  12  74 W17       29.93R WCI   4
LOGANSPORT +   SUNNY     14   3  62 W14G22    30.03R WCI  -1
PERU/GRISSOM   SUNNY     13   6  72 W17       29.99R WCI  -4
ROCHESTER +    SUNNY     18   3  53 W10G17    29.99R WCI   6
SOUTH BEND     LGT SNOW  18  13  80 W21       29.96R WCI   1
WARSAW +       CLOUDY    18  10  73 W15       29.95R WCI   3

$$

INZ006>009-017-018-025>027-101700-
NORTHEAST INDIANA

CITY           SKY/WX    TMP DP  RH WIND       PRES   REMARKS
ANGOLA *+      CLOUDY    19  12  73 NW15      29.87R WCI   5
AUBURN +       LGT SNOW  23  16  74 W12       29.92R WCI  12
FORT WAYNE     FLURRIES  20  11  68 W21       29.94R WCI   4
HUNTINGTON +   CLOUDY    14   5  67 W13G22    29.96R HAZE    WCI   0

$$

INZ028-029-035-036-043>045-051>053-101700-
WEST CENTRAL INDIANA

CITY           SKY/WX    TMP DP  RH WIND       PRES   REMARKS
GREENCASTLE +  PTSUNNY   14   0  52 NW7       30.08R WCI   4
LAFAYETTE      MOSUNNY   13   5  70 NW13      30.07R WCI  -2
TERRE HAUTE    PTSUNNY   14   3  61 NW13G22   30.13R WCI   0

$$

INZ030>032-037>040-046>048-054>057-064-065-101700-
CENTRAL INDIANA

CITY           SKY/WX    TMP DP  RH WIND       PRES   REMARKS
ANDERSON       MOSUNNY   12   7  79 W12G23    30.01R WCI  -2
COLUMBUS       MOSUNNY   16   9  73 W9        30.08R WCI   4
FISHERS *+     PTSUNNY   12   7  79 NW12      30.04R WCI  -2
FRANKFORT +    MOSUNNY   15   1  54 W15       30.05R WCI   0
GREENWOOD *+   PTSUNNY   16   7  67 W9G18     30.05R WCI   4
INDIANAPOLIS   PTSUNNY   14   4  64 W17       30.05R WCI  -3
-EAGLE CREEK   PTSUNNY   13   5  70 W16       30.05R WCI  -3
KOKOMO *+      PTSUNNY   14   5  67 W17       30.01R WCI  -3
MARION +       CLOUDY    13   1  58 W17       30.00R WCI  -3
MT COMFORT *+  PTSUNNY   16   7  67 W16       30.03R WCI   0
SHELBYVILLE    CLOUDY    15   5  64 W13       30.04R WCI   1
ZIONSVILLE +   PTSUNNY   11   4  73 W12G21    30.04R WCI  -3

$$

INZ033-034-041-042-049-050-058-059-101700-
EAST CENTRAL INDIANA

CITY           SKY/WX    TMP DP  RH WIND       PRES   REMARKS
MUNCIE         CLOUDY    15   7  70 W16       29.99R WCI  -1

$$

INZ060-061-067>069-081>083-085>088-101700-
SOUTHWEST INDIANA

CITY           SKY/WX    TMP DP  RH WIND       PRES   REMARKS
EVANSVILLE     SUNNY     20   5  52 W14G21    30.20R WCI   7
HUNTINGBURG *+ CLOUDY    18   7  62 W14       30.17R WCI   4
WASHINGTON +   PTSUNNY   15   5  64 W10       30.16R WCI   2

$$

INZ062-063-066-070>080-084-089>092-101700-
SOUTH CENTRAL AND SOUTHEAST INDIANA

CITY           SKY/WX    TMP DP  RH WIND       PRES   REMARKS
BEDFORD +      PTSUNNY   14   7  73 W14G23    30.11R WCI  -1
BLOOMINGTON    CLOUDY    13   4  67 W13       30.08R WCI  -2
MADISON *+     CLOUDY    18   5  57 W16G22    30.09R WCI   3
NORTH VERNON + CLOUDY    16   7  67 CALM      30.07R
SEYMOUR +      PTSUNNY   18   7  62 W18       30.10R WCI   2

$$





USA.gov is the U.S. government's official web portal to all federal, state and local government web resources and services.